Starlink 35576

operational
NORAD ID: 66137 Int'l Des: 2025-237 Owner: SPXS Country: US Constellation: starlink
LEOCIRCULAR

Über Starlink 35576

Beschreibung wird geladen...

Live-Position

3D-Globus wird geladen...

Nächste Überflüge

Höhenverlauf

Altitude vs Time

uPlot chart will show altitude changes over time

Zweizeiliger Elementsatz

1 66137C 25237Z 25298.72270833 -.01208900 00000+0 -18558-2 0 2982
2 66137 53.1547 319.2447 0000821 60.3380 137.9336 16.04815577 18
Epoch: 25. Okt. 2025 • Age: 151 hours

Aktueller Status

Höhe 300.0 km
Geschwindigkeit 7.73 km/s
Subsatellitenpunkt -38.99°S, 3.47°E
Startdatum 22. Okt. 2025
Alter 8 days
Typ internet

Technische Details

Klassifizierung Payload
Masse 575.00 kg
Trockenmasse 530.00 kg
Gesamtmasse 575.00 kg
Länge 0.30 m
Durchmesser 4.10 m
Spannweite 29.00 m
Form Box + pan
Hersteller SPXS
Bus-Typ Starlink V2MO
Phasenstatus In Orbit
Besitzer/Staat SPXS/US

Große Konstellationen

Loading constellations...